Tracking 18816 objects as of 17-October-2017
HD Live streaming from Space Station
objects crossing your sky now

METEOR 2-6 DEB

Track METEOR 2-6 DEB now!
10-day predictions


NORAD ID: 31406
Int'l Code: 1980-073H
Perigee: 787.3 km
Apogee: 861.9 km
Inclination: 81.2 °
Period: 101.2 minutes
Semi major axis: 7195 km
RCS: 0.0145 m2 (small)
Launch date: September 9, 1980
Source: Commonwealth of Independent States (former USSR) (CIS)
Launch site: PLESETSK MISSILE AND SPACE COMPLEX (PKMTR)

Note: This is SATELLITE DEBRIS
aabbcc
Your satellite tracking list
Your tracking list is empty





NASA's NSSDC Master Catalog

Two Line Element Set (TLE):
1 31406U 80073H   17290.20574833  .00001256  00000-0  55201-3 0  9993
2 31406  81.2221 267.7965 0051810   4.0118 356.1464 14.22344929564928
Source of the keplerian elements: AFSPC